User: anonymous   Login
Location: Unspecified
(0.0000°N, 0.0000°E)
Time: 15:44:16
(UTC+00:00)
Language:

Cosmos 1953 - Orbit

View from above orbital plane
View from above orbital plane
View from above satellite
View from above satellite

Ground track
Ground track

The orbit data is extracted from the following two-line orbital elements,

1 19210U 88050A   22223.76746960  .00001567  00000-0  10118-3 0  9993
2 19210  82.5189   6.9696 0011077 312.1865  47.8422 15.07547260861027
Epoch (UTC): 11 August 2022 18:25:09
Eccentricity: 0.0011077
inclination: 82.5189°
perigee height: 536 km
apogee height: 551 km
right ascension of ascending node: 6.9696°
argument of perigee: 312.1865°
revolutions per day: 15.07547260
mean anomaly at epoch: 47.8422°
orbit number at epoch: 86102

The dashed part of the orbit path shows where the satellite is in the earth's shadow,  

DLR